�����͌���@�Y���u�C�̈ړ���,,,,,,,,,,,,
�@,Time,Time int.,,Lat.,,Long.,,Distance,,Direction,Speed,
Date(yy/mm/dd),(hh:mm),(hour),(min),(deg),(min),(deg),(min),(miles),(meter),(deg),(m/s),(knots)
2004/7/20,11:00,,,36,47.676 ,137,4.242 ,,,,,
2004/7/20,11:05,0,5,36,47.682 ,137,4.302 ,0.06 ,111.67 ,84.3 ,0.37 ,0.72 
2004/7/20,11:10,0,5,36,47.688 ,137,4.362 ,0.06 ,111.67 ,84.3 ,0.37 ,0.72 
2004/7/20,11:15,0,5,36,47.682 ,137,4.428 ,0.07 ,122.74 ,95.2 ,0.41 ,0.80 
2004/7/20,11:25,0,10,36,47.682 ,137,4.476 ,0.05 ,88.90 ,90.0 ,0.15 ,0.29 
2004/7/20,11:30,0,5,36,47.670 ,137,4.524 ,0.05 ,91.63 ,104.0 ,0.31 ,0.59 
2004/7/20,11:35,0,5,36,47.658 ,137,4.578 ,0.06 ,102.45 ,102.5 ,0.34 ,0.66 
2004/7/20,11:40,0,5,36,47.640 ,137,4.638 ,0.06 ,116.01 ,106.7 ,0.39 ,0.75 
2004/7/20,11:45,0,5,36,47.640 ,137,4.668 ,0.03 ,55.56 ,90.0 ,0.19 ,0.36 
2004/7/20,11:50,0,5,36,47.622 ,137,4.722 ,0.06 ,105.42 ,108.4 ,0.35 ,0.68 
2004/7/20,11:55,0,5,36,47.634 ,137,4.770 ,0.05 ,91.63 ,76.0 ,0.31 ,0.59 
2004/7/20,12:05,0,10,36,47.652 ,137,4.860 ,0.09 ,169.98 ,78.7 ,0.28 ,0.55 
2004/7/20,12:10,0,5,36,47.676 ,137,4.932 ,0.08 ,140.56 ,71.6 ,0.47 ,0.91 
2004/7/20,12:15,0,5,36,47.688 ,137,4.998 ,0.07 ,124.24 ,79.7 ,0.41 ,0.80 
2004/7/20,12:20,0,5,36,47.706 ,137,5.064 ,0.07 ,126.70 ,74.7 ,0.42 ,0.82 
2004/7/20,12:30,0,10,36,47.724 ,137,5.226 ,0.16 ,301.87 ,83.7 ,0.50 ,0.98 
2004/7/20,12:35,0,5,36,47.712 ,137,5.304 ,0.08 ,146.16 ,98.7 ,0.49 ,0.95 
2004/7/20,12:40,0,5,36,47.748 ,137,5.346 ,0.06 ,102.45 ,49.4 ,0.34 ,0.66 
2004/7/20,12:45,0,5,36,47.748 ,137,5.418 ,0.07 ,133.34 ,90.0 ,0.44 ,0.86 
2004/7/20,12:50,0,5,36,47.730 ,137,5.532 ,0.12 ,213.74 ,99.0 ,0.71 ,1.38 
2004/7/20,12:55,0,5,36,47.718 ,137,5.616 ,0.08 ,157.15 ,98.1 ,0.52 ,1.02 
,,,,,,,,,,,,
,,,,,,,,,,,,
�A,Time,Time int.,,Lat.,,Long.,,Distance,,Direction,Speed,
Date(yy/mm/dd),(hh:mm),(hour),(min),(deg),(min),(deg),(min),(miles),(meter),(deg),(m/s),(knots)
2004/7/20,13:55,,,36,47.880 ,137,4.530 ,,,,,
2004/7/20,14:00,0,5,36,47.892 ,137,4.620 ,0.09 ,168.16 ,82.4 ,0.56 ,1.09 
2004/7/20,14:05,0,5,36,47.904 ,137,4.674 ,0.06 ,102.45 ,77.5 ,0.34 ,0.66 
2004/7/20,14:10,0,5,36,47.898 ,137,4.716 ,0.04 ,78.57 ,98.1 ,0.26 ,0.51 
2004/7/20,14:15,0,5,36,47.922 ,137,4.776 ,0.06 ,119.68 ,68.2 ,0.40 ,0.78 
2004/7/20,14:20,0,5,36,47.934 ,137,4.824 ,0.05 ,91.63 ,76.0 ,0.31 ,0.59 
2004/7/20,14:25,0,5,36,47.922 ,137,4.890 ,0.07 ,124.24 ,100.3 ,0.41 ,0.80 
2004/7/20,14:30,0,5,36,47.922 ,137,4.926 ,0.04 ,66.67 ,90.0 ,0.22 ,0.43 
,,,,,,,,,,,,
,,,,,,,,,,,,
�B,Time,Time int.,,Lat.,,Long.,,Distance,,Direction,Speed,
Date(yy/mm/dd),(hh:mm),(hour),(min),(deg),(min),(deg),(min),(miles),(meter),(deg),(m/s),(knots)
2004/7/20,9:25,,,36,47.676 ,137,4.218 ,,,,,
2004/7/20,9:30,0,5,36,47.682 ,137,4.284 ,0.07 ,122.74 ,84.8 ,0.41 ,0.80 
2004/7/20,9:35,0,5,36,47.682 ,137,4.320 ,0.04 ,66.67 ,90.0 ,0.22 ,0.43 
2004/7/20,9:45,0,10,36,47.670 ,137,4.416 ,0.10 ,179.18 ,97.1 ,0.30 ,0.58 
2004/7/20,9:50,0,5,36,47.670 ,137,4.476 ,0.06 ,111.12 ,90.0 ,0.37 ,0.72 
2004/7/20,10:00,0,10,36,47.670 ,137,4.596 ,0.12 ,222.24 ,90.0 ,0.37 ,0.72 
2004/7/20,10:05,0,5,36,47.658 ,137,4.638 ,0.04 ,80.90 ,105.9 ,0.27 ,0.52 
2004/7/20,10:10,0,5,36,47.658 ,137,4.692 ,0.05 ,100.01 ,90.0 ,0.33 ,0.65 
2004/7/20,10:15,0,5,36,47.658 ,137,4.740 ,0.05 ,88.90 ,90.0 ,0.30 ,0.58 
2004/7/20,10:20,0,5,36,47.670 ,137,4.788 ,0.05 ,91.63 ,76.0 ,0.31 ,0.59 
2004/7/20,10:25,0,5,36,47.676 ,137,4.842 ,0.05 ,100.62 ,83.7 ,0.34 ,0.65 
2004/7/20,10:30,0,5,36,47.700 ,137,4.896 ,0.06 ,109.44 ,66.0 ,0.36 ,0.71 
2004/7/20,10:35,0,5,36,47.712 ,137,4.956 ,0.06 ,113.32 ,78.7 ,0.38 ,0.73 
2004/7/20,10:40,0,5,36,47.724 ,137,5.022 ,0.07 ,124.24 ,79.7 ,0.41 ,0.80 
2004/7/20,10:45,0,5,36,47.742 ,137,5.100 ,0.08 ,148.25 ,77.0 ,0.49 ,0.96 
2004/7/20,10:50,0,5,36,47.748 ,137,5.160 ,0.06 ,111.67 ,84.3 ,0.37 ,0.72 
2004/7/20,10:55,0,5,36,47.766 ,137,5.256 ,0.10 ,180.89 ,79.4 ,0.60 ,1.17 
2004/7/20,11:00,0,5,36,47.784 ,137,5.376 ,0.12 ,224.73 ,81.5 ,0.75 ,1.46 
2004/7/20,11:10,0,10,36,47.796 ,137,5.424 ,0.05 ,91.63 ,76.0 ,0.15 ,0.30 
2004/7/20,11:15,0,5,36,47.802 ,137,5.508 ,0.08 ,155.96 ,85.9 ,0.52 ,1.01 
,,,,,,,,,,,,
,,,,,,,,,,,,
�C,Time,Time int.,,Lat.,,Long.,,Distance,,Direction,Speed,
Date(yy/mm/dd),(hh:mm),(hour),(min),(deg),(min),(deg),(min),(miles),(meter),(deg),(m/s),(knots)
2004/7/20,12:25,,,36,47.766 ,137,4.230 ,,,,,
2004/7/20,12:30,0,5,36,47.778 ,137,4.248 ,0.02 ,40.06 ,56.3 ,0.13 ,0.26 
2004/7/20,12:35,0,5,36,47.790 ,137,4.278 ,0.03 ,59.84 ,68.2 ,0.20 ,0.39 
2004/7/20,12:40,0,5,36,47.784 ,137,4.326 ,0.05 ,89.59 ,97.1 ,0.30 ,0.58 
2004/7/20,12:45,0,5,36,47.778 ,137,4.392 ,0.07 ,122.74 ,95.2 ,0.41 ,0.80 
2004/7/20,12:55,0,10,36,47.778 ,137,4.422 ,0.03 ,55.56 ,90.0 ,0.09 ,0.18 
2004/7/20,13:00,0,5,36,47.784 ,137,4.452 ,0.03 ,56.66 ,78.7 ,0.19 ,0.37 
2004/7/20,13:05,0,5,36,47.766 ,137,4.488 ,0.04 ,74.54 ,116.6 ,0.25 ,0.48 
2004/7/20,13:10,0,5,36,47.772 ,137,4.542 ,0.05 ,100.62 ,83.7 ,0.34 ,0.65 
2004/7/20,13:15,0,5,36,47.778 ,137,4.560 ,0.02 ,35.14 ,71.6 ,0.12 ,0.23 
2004/7/20,13:20,0,5,36,47.778 ,137,4.608 ,0.05 ,88.90 ,90.0 ,0.30 ,0.58 
2004/7/20,13:25,0,5,36,47.796 ,137,4.638 ,0.03 ,64.79 ,59.0 ,0.22 ,0.42 
2004/7/20,13:30,0,5,36,47.784 ,137,4.674 ,0.04 ,70.28 ,108.4 ,0.23 ,0.46 
2004/7/20,13:35,0,5,36,47.808 ,137,4.692 ,0.03 ,55.56 ,36.9 ,0.19 ,0.36 
2004/7/20,13:45,0,10,36,47.778 ,137,4.782 ,0.09 ,175.70 ,108.4 ,0.29 ,0.57 
2004/7/20,13:50,0,5,36,47.790 ,137,4.824 ,0.04 ,80.90 ,74.1 ,0.27 ,0.52 
2004/7/20,13:55,0,5,36,47.790 ,137,4.878 ,0.05 ,100.01 ,90.0 ,0.33 ,0.65 
2004/7/20,14:00,0,5,36,47.814 ,137,4.938 ,0.06 ,119.68 ,68.2 ,0.40 ,0.78 
2004/7/20,14:05,0,5,36,47.814 ,137,5.010 ,0.07 ,133.34 ,90.0 ,0.44 ,0.86 
2004/7/20,14:10,0,5,36,47.832 ,137,5.082 ,0.07 ,137.45 ,76.0 ,0.46 ,0.89 
2004/7/20,14:15,0,5,36,47.838 ,137,5.154 ,0.07 ,133.81 ,85.2 ,0.45 ,0.87 
2004/7/20,14:20,0,5,36,47.838 ,137,5.226 ,0.07 ,133.34 ,90.0 ,0.44 ,0.86 
2004/7/20,14:25,0,5,36,47.856 ,137,5.298 ,0.07 ,137.45 ,76.0 ,0.46 ,0.89 
2004/7/20,14:30,0,5,36,47.850 ,137,5.382 ,0.08 ,155.96 ,94.1 ,0.52 ,1.01 
2004/7/20,14:35,0,5,36,47.898 ,137,5.466 ,0.10 ,179.18 ,60.3 ,0.60 ,1.16 
